www.pogodaiklimat.ru

Погода и климат >> Архив погоды >> Индия >> Jharsuguda


ПОГОДА в Jharsuguda

  • Прогноз погоды в Jharsuguda
  • Монитор погоды в Jharsuguda
  • Климат города

АРХИВ ПОГОДЫ в Jharsuguda

Время (UTC), дата Ветер
(напр.,м/с)
 
Видим.   Явления Облачность Т
(С)
Тd
(С)
f
(%)
Тe
(С)
Тes
(С)
Комфортность P
(гПа)
Po
(гПа)
Тmin
(С)
Tmax
(С)
R
(мм)
R24
(мм)
S
(см)
12 8.08 Ю 2 2000 м {дождь} 10/8 540 м
[Sc As op]
+28.0 +23.7 77 +38 +38 очень
душно
997.1 997.0 +30.9 0.8
15 8.08 штиль 0 2000 м {дождь} 10/8 360 м
[St As op]
+26.8 +24.5 87 +38 +38 очень
душно
999.8 1000.0 0.8
18 8.08 штиль 0 2000 м {дождь} 10/8 540 м
[Sc As op]
+26.4 +24.4 89 +37 +37 очень
душно
1001.0 1001.0 0.8
21 8.08 штиль 0 2000 м слабый дождь 10/8 540 м
[Sc As op]
+26.0 +24.9 94 +37 +37 очень
душно
999.7 1000.0 2
00 9.08 штиль 0 2000 м слабый дождь 10/8 540 м
[Sc As op]
+25.4 +24.8 96 +36 +36 очень
душно
1000.8 1001.0 3
03 9.08 ЮВ 1 2000 м {дождь} 10/8 540 м
[Sc As op]
+26.4 +24.7 90 +37 +38 очень
душно
1002.5 1003.0 +24.8 3
06 9.08 Ю 1 4000 м 10/8 500 м
[Sc As op]
+28.0 +24.9 83 +40 +41 очень
душно
1002.7 1003.0
09 9.08 ЮЗ 2 4000 м 9/5 600 м
[Sc Ac trans]
+29.8 +25.0 75 +43 +47 опасность
перегрева
1001.8 1002.0
12 9.08 ЮЗ 2 4000 м 9/6 600 м
[Sc Ac trans]
+29.6 +24.3 73 +41 +42 опасность
перегрева
1000.6 1001.0 +30.6
15 9.08 Ю 1 4000 м 4/4 600 м
[Sc]
+27.2 +24.9 87 +39 +39 очень
душно
1002.3 1002.0
18 9.08 штиль 0 4000 м 9/5 600 м
[Sc As op]
+26.8 +25.1 90 +39 +39 очень
душно
1003.5 1004.0
21 9.08 штиль 0 4000 м 10/6 540 м
[Sc As op]
+26.4 +25.0 92 +38 +38 очень
душно
1002.3 1002.0
00 10.08 штиль 0 2000 м мгла 10/8 540 м
[Sc As op]
+26.2 +24.8 92 +37 +37 очень
душно
1001.7 1002.0
03 10.08 штиль 0 4000 м мгла 10/8 540 м
[Sc As op]
+27.6 +25.3 87 +40 +41 очень
душно
1003.2 1003.0 +25.7
06 10.08 штиль 0 4000 м мгла 10/8 540 м
[Sc As op]
+30.4 +25.0 73 +44 +45 опасность
перегрева
1002.5 1003.0
09 10.08 Ю 2 4000 м 6/4 600 м
[Sc Ac trans]
+32.4 +25.4 67 +47 +54 опасность
перегрева
999.6 1000.0
12 10.08 ЮЗ 2 4000 м 6/4 600 м
[Sc Ac trans]
+31.4 +25.8 72 +46 +47 опасность
перегрева
998.2 998.0 +33.0
15 10.08 ЮЗ 1 4000 м 5/0
[Ac trans]
+29.0 +26.2 85 +44 +44 опасность
перегрева
1000.2 1000.0
18 10.08 ЮЗ 1 4000 м 4/0
[Ac trans]
+28.0 +26.6 92 +43 +43 опасность
перегрева
1001.3 1001.0
21 10.08 штиль 0 4000 м 3/0
[Ac trans]
+27.0 +25.6 92 +40 +40 очень
душно
1000.7 1001.0
00 11.08 штиль 0 4000 м 9/0
[Ac trans]
+27.6 +26.8 95 +43 +43 опасность
перегрева
999.2 999.0
03 11.08 штиль 0 2000 м мгла 10/8 540 м
[Sc As op]
+28.8 +26.0 85 +43 +44 опасность
перегрева
999.8 1000.0 +27.0
06 11.08 ЮЗ 1 4000 м 6/4 600 м
[Sc Ac trans]
+32.4 +25.4 67 +47 +59 опасность
перегрева
998.9 999.0
09 11.08 Ю 1 4000 м 9/3 600 м
[Sc Ac trans]
+32.6 +25.9 68 +48 +54 опасность
перегрева
995.9 996.0
12 11.08 СВ 1 2000 м мгла 10/8 540 м
[Sc As op]
+31.6 +26.6 75 +49 +49 опасность
перегрева
995.8 996.0 +34.0
15 11.08 штиль 0 4000 м гроза без осадков 10/8 540 м
[Cb cap As op]
+28.6 +24.5 79 +41 +41 опасность
перегрева
999.3 999.0
18 11.08 штиль 0 4000 м гроза, ливневой дождь 10/8 540 м
[Cb cap As op]
+28.0 +25.7 87 +41 +41 опасность
перегрева
999.6 1000.0 0.0
21 11.08 штиль 0 4000 м {гроза, дождь} 10/8 540 м
[Sc As op]
+27.6 +25.0 86 +40 +40 очень
душно
998.7 999.0 0.0
00 12.08 штиль 0 2000 м дымка {гроза, дождь} 10/8 540 м
[Sc As op]
+25.6 +24.7 95 +36 +36 очень
душно
998.0 998.0 7
03 12.08 штиль 0 500 м туман 10/8 540 м
[Sc As op]
+27.0 +25.6 92 +40 +40 очень
душно
998.1 998.0 +25.2 7
06 12.08 штиль 0 2000 м мгла {туман} 10/6 540 м
[Sc As op]
+30.0 +25.8 78 +45 +47 опасность
перегрева
998.0 998.0
09 12.08 Ю 1 2000 м мгла 10/8 540 м
[Sc As op]
+31.4 +25.8 72 +46 +47 опасность
перегрева
994.8 995.0
12 12.08 ЮЗ 2 2000 м мгла 10/8 540 м
[Sc As op]
+30.4 +26.2 78 +46 +46 опасность
перегрева
994.3 994.0 +31.8
15 12.08 штиль 0 2000 м гроза, ливневой дождь 10/8 540 м
[Cb cap As op]
+28.0 +24.9 83 +40 +40 очень
душно
997.5 998.0 0.2
18 12.08 штиль 0 2000 м слабый дождь {гроза} 10/8 540 м
[Sc As op]
+25.6 +25.0 96 +36 +36 очень
душно
999.5 1000.0 57
21 12.08 штиль 0 2000 м {гроза, дождь} 10/8 540 м
[Sc As op]
+26.0 +24.9 94 +37 +37 очень
душно
997.8 998.0 57
00 13.08 штиль 0 2000 м дымка {дождь} 10/8 540 м
[Sc As op]
+26.0 +25.1 95 +37 +37 очень
душно
996.6 997.0 57
03 13.08 штиль 0 2000 м дымка 10/8 540 м
[Sc As op]
+27.8 +25.8 89 +41 +42 опасность
перегрева
998.7 999.0 +25.1 57
06 13.08 штиль 0 4000 м мгла 9/6 600 м
[Sc Ac trans]
+31.4 +25.5 71 +46 +52 опасность
перегрева
998.0 998.0
09 13.08 штиль 0 4000 м 10/6 600 м
[Sc Ac trans]
+33.4 +25.6 64 +48 +51 опасность
перегрева
996.1 996.0
12 13.08 ЮЗ 1 4000 м гроза без осадков 10/8 540 м
[Cb cap As op]
+28.4 +25.0 82 +41 +41 опасность
перегрева
996.1 996.0 +34.1
15 13.08 штиль 0 2000 м зарница {гроза, дождь} 10/8 540 м
[Cb cap As op]
+26.8 +25.4 92 +39 +39 очень
душно
998.6 999.0 1
18 13.08 штиль 0 2000 м слабый дождь {гроза} 10/8 540 м
[Sc As op]
+27.0 +25.6 92 +40 +40 очень
душно
999.1 999.0 2
21 13.08 штиль 0 2000 м {дождь} 10/8 540 м
[Sc As op]
+26.6 +25.5 94 +39 +39 очень
душно
998.2 998.0 2
00 14.08 штиль 0 2000 м дымка 10/8 540 м
[Sc As op]
+26.8 +26.0 95 +40 +40 очень
душно
997.3 997.0 2
03 14.08 штиль 0 4000 м 5/3 600 м
[Sc Ac trans]
+28.6 +25.5 83 +42 +49 опасность
перегрева
998.8 999.0 +26.4 2
06 14.08 штиль 0 4000 м 8/5 600 м
[Sc Ac trans]
+31.6 +25.1 69 +46 +55 опасность
перегрева
997.9 998.0
09 14.08 штиль 0 4000 м гроза без осадков 9/5 540 м
[Cb cap Ac trans]
+33.2 +28.1 75 +54 +59 опасность
перегрева
994.7 995.0
12 14.08 штиль 0 4000 м {гроза} 9/5 600 м
[Sc Ac trans]
+31.0 +25.4 72 +45 +45 опасность
перегрева
994.5 995.0 +33.4
15 14.08 штиль 0 4000 м 10/8 540 м
[Sc As op]
+30.0 +26.4 81 +46 +46 опасность
перегрева
996.9 997.0
18 14.08 штиль 0 2000 м {дождь} 10/8 540 м
[Sc As op]
+28.2 +25.9 87 +42 +42 опасность
перегрева
997.2 997.0 0.4
21 14.08 штиль 0 2000 м 10/8 540 м
[Sc As op]
+27.6 +25.6 89 +41 +41 опасность
перегрева
996.5 997.0 0.8
00 15.08 штиль 0 2000 м дымка 10/8 540 м
[Sc As op]
+27.0 +25.6 92 +40 +40 очень
душно
996.4 996.0 0.8
03 15.08 СВ 1 4000 м {гроза, дождь} 9/5 540 м
[Sc Ac trans]
+28.4 +25.9 86 +42 +45 опасность
перегрева
997.7 998.0 +26.4 1
06 15.08 СВ 1 4000 м в посл. час дождь 9/5 540 м
[Sc Ac trans]
+30.2 +25.4 76 +44 +51 опасность
перегрева
996.8 997.0 0.0

 

Местоположение метеостанции Jharsuguda (Orissa, Индия): широта 21.92 долгота 84.08 высота над уровнем моря 230 м.

В архиве по умолчанию представлена погода в Jharsuguda за последнюю неделю. Архивные данные за месяц целиком и за предыдущие месяцы, начиная с января 2011 года, Вы можете получить, выбрав интересующий диапазон дат из раскрывающегося списка и нажав кнопку "Ввод!".


*Определитесь, кто Вы:
робот инопланетянин человек

Внимание! Время в таблицах - всемирное. Для получения местного времени необходимо прибавить поправку, которая в Jharsuguda равна 5.5 ч.

Смотрите также архив погоды в соседних городах и на ближайших метеорологических станциях:

Погода в Sundargarh (Orissa, Индия) (23 км)
Погода в Hirakud (Orissa, Индия) (50 км)
Погода в Sambalpur (Orissa, Индия) (51 км)
Погода в Keongjhargarh (Orissa, Индия) (152 км)
Погода в Angul (Orissa, Индия) (161 км)
Погода в Phulbani (Orissa, Индия) (161 км)
Погода в Ambikapur (Chhattisgarh, Индия) (163 км)
Погода в Chaibasa (Jharkhand, Индия) (192 км)
Погода в Titlagarh (Orissa, Индия) (198 км)
Погода в Bilaspur (Chhattisgarh, Индия) (198 км)

Пояснения к столбцам:

Ветер - указаны скорость ветра в м/с - средняя за 10 мин, порывы в срок и между сроками (в фигурных скобках) и направление, откуда дует ветер: С - северный, СВ - северо-восточный, В - восточный, ЮВ - юго-восточный, Ю - южный, ЮЗ - юго-западный, З - западный, СЗ - северо-западный.
Видимость - горизонтальная дальность видимости в метрах или километрах. При видимости от 1 до 10 км при отсутствии осадков обычно наблюдается дымка, при ухудшении видимости до 1 км и менее - туман. В сухую погоду видимость может ухудшаться дымом, пылью или мглою.
Явления - указаны атмосферные явления, наблюдавшиеся в срок или в последний час перед сроком; фигурными скобками обозначены явления, наблюдавшиеся между сроками (за 1-3 часа до срока); квадратными скобками обозначены град или гололедные отложения с указанием их диаметра в мм.
Облачность - указаны через наклонную черту общая и нижняя облачность в баллах и высота нижней границы облаков в метрах; квадратными скобками обозначены формы облаков: Ci - перистые, Cs - перисто-слоистые, Cc - перисто-кучевые, Ac - высококучевые, As - высокослоистые, Sc - слоисто-кучевые, Ns - слоисто-дождевые, Cu - кучевые, Cb - кучево-дождевые. Подробнее классификацию облаков см. в Атласе облаков (PDF).
T - Температура воздуха - температура, измеренная на высоте 2 м над землей.
Td - Температура точки росы - температура, при понижении до которой содержащийся в воздухе водяной пар достигнет насыщения.
f - Относительная влажность воздуха - влажноcть воздуха, измеренная на высоте 2 м над землей.
Te - Эффективная температура - температура, которую ощущает одетый по сезону человек в тени. Характеристика душности погоды. При расчете учитывается влияние влажности воздуха и скорости ветра на теплоощущения человека.
Tes - Эффективная температура на солнце - температура, которую ощущает человек, с поправкой на солнечный нагрев. Характеристика знойности погоды. Зависит от высоты солнца над горизонтом, облачности и скорости ветра. Ночью, в пасмурную погоду, а также при ветре 12 м/с и более поправка равна нулю.
P - Атмосферное давление - приведенное к уровню моря атмосферное давление.
Po - Атмосферное давление - измеренное на уровне метеостанции атмосферное давление.
Tmin - Минимальная температура - минимум температуры воздуха на высоте 2 м над землей.
Tmax - Максимальная температура - максимум температуры воздуха на высоте 2 м над землей.
R - Количество осадков - Количество выпавших осадков за период времени, мм. При наведении курсора мыши на число - период времени, за который выпало указанное количество осадков.
R24 - Количество осадков - Количество выпавших осадков за 24 часа, мм.
S - Снежный покров - Высота снежного покрова, см. При наведении курсора мыши на число - состояние снежного покрова и степень покрытия местности в баллах.